Weather in Saham

Oman     24°10′21″N   56°53′23″E
temp.,
°C
wind,
m/s
gust,
m/s
humid.,
%
clouds,
%
prec.,
mm/h
press.,
hPa
HPBL,
m
5 march, fri
fri501:00+26sw11670 0.0 101424
04:00+26s11650 0.0 101424
07:00+27nne22600 0.0 101524
10:00+27ne12630 0.0 101635
13:00+27ene55580 0.0 101461
16:00+27e34600 0.0 101133
19:00+28se34560 0.0 101324
22:00+28nnw45540 0.0 101425
6 march, sat
sat601:00+27sw33550 0.0 101424
04:00+27sw12580 0.0 101324
07:00+27nw22570 0.0 101524
10:00+27n34500 0.0 101636
13:00+27n67540 0.0 101383
16:00+29nnw56500 0.0 101269
19:00+28nw89460 0.0 101383
22:00+25wnw67530 0.0 1014119
7 march, sun
sun701:00+25nw78510 0.0 1013132
04:00+24nw910480 0.0 1012297
07:00+22nw88570 0.0 1014360
10:00+22nnw66540 0.0 1015384
13:00+23n67550 0.0 1013266
16:00+25nne34580 0.0 101099
19:00+26nnw24620 0.0 101265
22:00+24wnw67510 0.0 1013233
8 march, mon
mon801:00+22nw77510 0.0 1012273
04:00+21nw77530 0.0 1011315
07:00+21nw55530 0.0 1013301
10:00+21nw22440 0.0 1014254
13:00+23nne55480 0.0 1012279
16:00+24ne33520 0.0 1010237
19:00+24sse22570 0.0 101180
22:00+24s22580 0.0 101333
9 march, tue
tue901:00+24ne12580 0.0 1012108
04:00+24nne11540 0.0 1012142
07:00+24ssw01500 0.0 1013143
10:00+24n11340 0.0 1015123
13:00+25ene44490 0.0 1012148
16:00+25ene44590 0.0 1010106
19:00+25sse22660 0.0 101224
22:00+25wsw22620 0.0 101324